Weather History for KHNZ - November, 2012

Change the Weather History Date:

Thursday, November 29, 2012

  Actual Average (KTDF) Record (KTDF)
Temperature  
Mean Temperature 40 °F -  
Max Temperature 51 °F 58 °F 78 °F (1985)
Min Temperature 28 °F 34 °F 19 °F (1967)
Degree Days  
Heating Degree Days 26    
Moisture  
Dew Point 24 °F    
Average Humidity 56    
Maximum Humidity 86    
Minimum Humidity 33    
Precipitation  
Precipitation 0.03 in - - ()
Sea Level Pressure  
Sea Level Pressure 30.41 in    
Wind  
Wind Speed 2 mph (SW)    
Max Wind Speed 8 mph    
Max Gust Speed -    
Visibility 10 miles    
Events      
Averages and records for this station are not official NWS values.
T = Trace of Precipitation, MM = Missing Value Source: NWS Daily Summary

Daily Weather History Graph

Daily Weather History Graph

Search for Another Location

Airport or City:

Trip Planner

Search our weather history database for the weather conditions in past years. The results will help you decide how hot, cold, wet, or windy it might be!

Date:

Astronomy

Nov. 29, 2012 Rise Set
Actual Time 7:05 AM EST 4:59 PM EST
Civil Twilight 6:37 AM EST 5:27 PM EST
Nautical Twilight 6:05 AM EST 5:59 PM EST
Astronomical Twilight 5:34 AM EST 6:30 PM EST
Moon 6:00 PM EST (11/29) 7:50 AM EST (11/29)
Length of Visible Light 10h 50m
Length of Day
9h 53m
Full, 99% of the Moon is Illuminated
Nov 29
Full
Dec 6
Last Quarter
Dec 13
New
Dec 20
First Quarter
Dec 28
Full

Hourly Weather History & Observations

Time (EST) Temp. Windchill Dew Point Humidity Pressure Visibility Wind Dir Wind Speed Gust Speed Precip Events Conditions
12:15 AM 32.0 °F 28.7 °F 23.0 °F 69% 30.39 in 10.0 mi West 3.5 mph - N/A   Clear
12:35 AM 30.2 °F - 26.6 °F 86% 30.39 in 10.0 mi Calm Calm - N/A   Clear
12:55 AM 32.0 °F 28.7 °F 23.0 °F 69% 30.39 in 10.0 mi West 3.5 mph - N/A   Clear
1:15 AM 33.8 °F 30.8 °F 21.2 °F 60% 30.39 in 10.0 mi WNW 3.5 mph - N/A   Clear
1:35 AM 32.0 °F - 23.0 °F 69% 30.39 in 10.0 mi Calm Calm - N/A   Clear
1:55 AM 28.4 °F - 24.8 °F 86% 30.39 in 10.0 mi Calm Calm - N/A   Clear
2:15 AM 32.0 °F 28.7 °F 23.0 °F 69% 30.40 in 10.0 mi WNW 3.5 mph - N/A   Clear
2:35 AM 32.0 °F 28.7 °F 23.0 °F 69% 30.40 in 10.0 mi NW 3.5 mph - N/A   Clear
2:55 AM 33.8 °F - 21.2 °F 60% 30.40 in 10.0 mi Calm Calm - N/A   Clear
3:15 AM 33.8 °F - 19.4 °F 56% 30.40 in 10.0 mi Calm Calm - N/A   Clear
3:35 AM 32.0 °F 27.5 °F 21.2 °F 64% 30.40 in 10.0 mi WNW 4.6 mph - N/A   Clear
3:55 AM 33.8 °F 29.6 °F 21.2 °F 60% 30.40 in 10.0 mi WNW 4.6 mph - N/A   Clear
4:15 AM 33.8 °F 30.8 °F 19.4 °F 56% 30.40 in 10.0 mi WNW 3.5 mph - N/A   Clear
4:35 AM 33.8 °F - 19.4 °F 56% 30.39 in 10.0 mi Calm Calm - N/A   Clear
4:55 AM 33.8 °F - 21.2 °F 60% 30.40 in 10.0 mi Calm Calm - N/A   Clear
5:15 AM 33.8 °F - 21.2 °F 60% 30.40 in 10.0 mi Calm Calm - N/A   Clear
5:35 AM 32.0 °F - 21.2 °F 64% 30.40 in 10.0 mi Calm Calm - N/A   Clear
5:55 AM 30.2 °F - 21.2 °F 69% 30.41 in 10.0 mi Calm Calm - N/A   Clear
6:15 AM 32.0 °F - 21.2 °F 64% 30.41 in 10.0 mi Calm Calm - N/A   Clear
6:55 AM 30.2 °F - 21.2 °F 69% 30.43 in 10.0 mi Calm Calm - N/A   Clear
7:15 AM 32.0 °F - 21.2 °F 64% 30.44 in 10.0 mi Calm Calm - N/A   Clear
7:35 AM 32.0 °F - 21.2 °F 64% 30.44 in 10.0 mi Calm Calm - N/A   Clear
7:55 AM 32.0 °F - 23.0 °F 69% 30.45 in 10.0 mi Calm Calm - N/A   Clear
8:15 AM 33.8 °F - 23.0 °F 65% 30.45 in 10.0 mi Calm Calm - N/A   Clear
8:35 AM 35.6 °F - 23.0 °F 60% 30.45 in 10.0 mi Calm Calm - N/A   Clear
8:55 AM 37.4 °F - 26.6 °F 65% 30.45 in 10.0 mi Calm Calm - N/A   Clear
9:15 AM 37.4 °F - 24.8 °F 60% 30.46 in 10.0 mi Calm Calm - N/A   Clear
9:35 AM 41.0 °F 39.0 °F 24.8 °F 53% 30.46 in 10.0 mi NW 3.5 mph - N/A   Clear
9:55 AM 42.8 °F - 24.8 °F 49% 30.47 in 10.0 mi Calm Calm - N/A   Clear
10:15 AM 42.8 °F - 23.0 °F 46% 30.47 in 10.0 mi Calm Calm - N/A   Clear
10:35 AM 42.8 °F - 23.0 °F 46% 30.47 in 10.0 mi Calm Calm - N/A   Clear
10:55 AM 44.6 °F - 23.0 °F 43% 30.47 in 10.0 mi Calm Calm - N/A   Clear
11:15 AM 44.6 °F 43.1 °F 21.2 °F 39% 30.46 in 10.0 mi WSW 3.5 mph - N/A   Clear
11:35 AM 46.4 °F 45.2 °F 23.0 °F 40% 30.46 in 10.0 mi West 3.5 mph - N/A   Clear
11:55 AM 46.4 °F 45.2 °F 23.0 °F 40% 30.45 in 10.0 mi WSW 3.5 mph - N/A   Clear
12:15 PM 46.4 °F - 21.2 °F 37% 30.44 in 10.0 mi Calm Calm - N/A   Clear
12:35 PM 50.0 °F - 23.0 °F 35% 30.44 in 10.0 mi Calm Calm - N/A   Clear
12:55 PM 50.0 °F - 23.0 °F 35% 30.42 in 10.0 mi West 3.5 mph - N/A   Clear
1:15 PM 50.0 °F - 23.0 °F 35% 30.42 in 10.0 mi SSW 6.9 mph - N/A   Clear
1:35 PM 50.0 °F - 23.0 °F 35% 30.41 in 10.0 mi West 8.1 mph - N/A   Clear
1:55 PM 50.0 °F - 23.0 °F 35% 30.39 in 10.0 mi SW 8.1 mph - N/A   Clear
2:15 PM - - - N/A% - - North - - N/A   Unknown
2:35 PM 51.8 °F - 24.8 °F 35% 30.38 in 10.0 mi SSW 3.5 mph - 0.03 in   Clear
2:55 PM 51.4 °F - 24.1 °F 34% 30.38 in 10.0 mi SSW 4.6 mph - 0.03 in   Clear
3:15 PM 51.6 °F - 23.5 °F 33% 30.38 in 10.0 mi Calm Calm - N/A   Clear
3:35 PM 51.8 °F - 25.0 °F 35% 30.37 in 10.0 mi WSW 4.6 mph - N/A   Clear
3:55 PM 50.9 °F - 24.1 °F 35% 30.37 in 10.0 mi South 4.6 mph - N/A   Clear
4:15 PM 50.4 °F - 24.3 °F 36% 30.37 in 10.0 mi South 4.6 mph - N/A   Clear
4:35 PM 49.1 °F - 25.3 °F 40% 30.37 in 10.0 mi South 5.8 mph - N/A   Clear
4:55 PM 48.0 °F - 25.0 °F 41% 30.37 in 10.0 mi South 3.5 mph - N/A   Clear
5:15 PM 45.7 °F 44.4 °F 25.7 °F 46% 30.37 in 10.0 mi South 3.5 mph - N/A   Clear
5:35 PM 44.6 °F - 26.2 °F 49% 30.37 in 10.0 mi Calm Calm - N/A   Clear
5:55 PM 43.0 °F - 27.1 °F 54% 30.38 in 10.0 mi Calm Calm - N/A   Clear
6:15 PM 43.0 °F - 26.1 °F 51% 30.38 in 10.0 mi Calm Calm - N/A   Clear
6:35 PM 42.8 °F 41.1 °F 25.9 °F 51% 30.38 in 10.0 mi South 3.5 mph - N/A   Clear
6:55 PM 41.0 °F - 26.6 °F 57% 30.39 in 10.0 mi Calm Calm - N/A   Clear
7:15 PM 40.1 °F 38.0 °F 27.1 °F 60% 30.39 in 10.0 mi SSE 3.5 mph - N/A   Clear
7:35 PM 41.2 °F - 25.7 °F 54% 30.39 in 10.0 mi Calm Calm - N/A   Clear
7:55 PM 40.6 °F - 25.7 °F 55% 30.39 in 10.0 mi Calm Calm - N/A   Clear
8:15 PM 39.7 °F - 26.1 °F 58% 30.39 in 10.0 mi Calm Calm - N/A   Clear
8:35 PM 40.3 °F 37.1 °F 26.2 °F 57% 30.40 in 10.0 mi SSW 4.6 mph - N/A   Clear
8:55 PM 37.8 °F 34.2 °F 25.9 °F 62% 30.40 in 10.0 mi SW 4.6 mph - N/A   Clear
9:15 PM 33.3 °F - 28.4 °F 82% 30.40 in 10.0 mi Calm Calm - N/A   Clear
9:35 PM 36.0 °F 33.3 °F 27.5 °F 71% 30.40 in 10.0 mi South 3.5 mph - N/A   Clear
9:55 PM 36.1 °F 33.5 °F 27.1 °F 70% 30.40 in 10.0 mi SSW 3.5 mph - N/A   Clear
10:15 PM 37.8 °F 35.3 °F 26.4 °F 64% 30.40 in 10.0 mi SSW 3.5 mph - N/A   Clear
10:35 PM 35.1 °F 32.2 °F 27.0 °F 72% 30.39 in 10.0 mi SSW 3.5 mph - N/A   Clear
10:55 PM 36.3 °F 33.7 °F 27.0 °F 69% 30.39 in 10.0 mi SSW 3.5 mph - N/A   Clear
11:15 PM 32.4 °F 29.1 °F 26.8 °F 80% 30.39 in 10.0 mi SSW 3.5 mph - N/A   Clear
11:35 PM 36.5 °F 32.7 °F 27.3 °F 69% 30.39 in 10.0 mi SSW 4.6 mph - N/A   Clear
11:55 PM 32.5 °F 29.3 °F 25.7 °F 76% 30.38 in 10.0 mi SSW 3.5 mph - N/A   Clear